This demonstration page uses our WeatherBlox Daily Observations layout. Learn more.

Left ArrowRight Arrow

31.31129, -92.44514

Hourly Observations for December 20, 2020

Temp ( °F °C ) Dew Point ( °F °C ) Humidity (%) Winds ( mph kmh ) Pressure ( in mb ) Visibility ( mi km ) Precip ( " mm )
12:07 am 00:07 Cloudy with Mist and Fog 51 10.6 51 10.6 100 100 NNW 6 9 30.05 1018 3 5 0.00 0.00
12:53 am 00:53 Cloudy with Mist and Fog 51 10.6 51 10.6 100 100 NNW 7 11 30.05 1018 3 4 0.00 0.00
1:53 am 01:53 Cloudy with Mist and Fog 51 10.6 51 10.6 100 100 N 6 9 30.04 1017 3 4 0.00 0.00
2:01 am 02:01 Cloudy with Mist and Fog 51 10.6 51 10.6 100 100 NNW 5 7 30.04 1017 4 6 0.00 0.00
2:53 am 02:53 Cloudy with Mist and Fog 51 10.6 51 10.6 100 100 NNW 3 6 30.05 1018 6 10 0.00 0.00
3:15 am 03:15 Cloudy 51 10.6 51 10.6 100 100 Calm 30.04 1017 8 13 0.00 0.00
3:31 am 03:31 Cloudy 51 10.6 51 10.6 100 100 Calm 30.04 1017 7 11 0.00 0.00
3:40 am 03:40 Cloudy 51 10.6 51 10.6 100 100 NW 3 6 30.04 1017 7 11 0.00 0.00
3:53 am 03:53 Cloudy 51 10.6 51 10.6 100 100 Calm 30.05 1018 7 11 0.00 0.00
4:29 am 04:29 Cloudy with Mist and Fog 50 10 50 10 100 100 Calm 30.03 1017 6 10 0.00 0.00
4:53 am 04:53 Cloudy with Mist and Fog 50 10 50 10 100 100 NW 3 6 30.05 1018 6 10 0.00 0.00
5:15 am 05:15 Cloudy 50 10 50 10 100 100 NW 3 6 30.04 1017 7 11 0.00 0.00
5:53 am 05:53 Cloudy with Mist and Fog 50 10 50 10 100 100 NNW 5 7 30.06 1018 1 2 0.00 0.00
6:02 am 06:02 Mostly Cloudy with Fog 50 10 50 10 100 100 NNW 7 11 30.05 1018 1 1 0.00 0.00
6:15 am 06:15 Cloudy with Mist and Fog 50 10 50 10 100 100 NNW 6 9 30.05 1018 2 3 0.00 0.00
6:30 am 06:30 Cloudy with Mist and Fog 50 10 50 10 100 100 NNW 9 15 30.06 1018 5 8 0.00 0.00
6:53 am 06:53 Cloudy with Mist and Fog 50 10 50 10 100 100 NNW 8 13 30.08 1019 3 4 0.00 0.00
7:23 am 07:23 Cloudy with Mist and Fog 50 10 50 10 100 100 NW 8 13 30.07 1018 3 5 0.00 0.00
7:53 am 07:53 Cloudy with Mist and Fog 50 10 50 10 100 100 NNW 10 17 30.09 1019 2 3 0.00 0.00
8:20 am 08:20 Cloudy with Mist and Fog 50 10 50 10 100 100 NW 10 17 30.09 1019 4 6 0.00 0.00
8:50 am 08:50 Cloudy 50 10 50 10 100 100 NNW 9 15 30.09 1019 10 16 0.00 0.00
8:53 am 08:53 Cloudy 50 10 50 10 100 100 NNW 8 13 30.10 1019 10 16 0.00 0.00
9:07 am 09:07 Cloudy 50 10 50 10 100 100 NNW 10 17 30.10 1019 10 16 0.00 0.00
9:20 am 09:20 Cloudy 50 10 50 10 100 100 NW 10 17 30.10 1019 9 14 0.00 0.00
9:53 am 09:53 Cloudy 50 10 50 10 100 100 NW 9 15 30.12 1020 10 16 0.00 0.00
10:16 am 10:16 Cloudy 52 11.1 50 10 93 93 NW 10 17 30.10 1019 10 16 0.00 0.00
10:50 am 10:50 Cloudy 52 11 50 10 94 94 NNW 6 9 30.10 1019 10 16 0.00 0.00
10:53 am 10:53 Cloudy 52 11.1 50 10 93 93 NW 7 11 30.11 1020 10 16 0.00 0.00
11:00 am 11:00 Cloudy 52 11.1 50 10 93 93 NNW 7 11 30.09 1019 10 16 0.00 0.00
11:40 am 11:40 Cloudy 54 12.2 50 10 87 87 NNW 9 15 30.08 1019 10 16 0.00 0.00
11:53 am 11:53 Cloudy 53 11.7 49 9.4 86 86 NW 12 19 30.09 1019 10 16 0.00 0.00
12:17 pm 12:17 Cloudy 52 11.1 49 9.4 89 89 NW 9 15 30.06 1018 10 16 0.00 0.00
12:28 pm 12:28 Cloudy 52 11.1 49 9.4 89 89 WNW 13 20 30.06 1018 10 16 0.00 0.00
12:53 pm 12:53 Cloudy 52 11.1 49 9.4 89 89 W 9 15 30.07 1018 10 16 0.00 0.00
1:53 pm 13:53 Cloudy 53 11.7 48 8.9 83 83 WNW 10 17 30.06 1018 10 16 0.00 0.00
2:06 pm 14:06 Cloudy 53 11.7 48 8.9 83 83 NW 9 15 30.05 1018 10 16 0.00 0.00
2:40 pm 14:40 Mostly Cloudy 55 12.8 47 8.3 74 74 WNW 8 13 30.04 1017 10 16 0.00 0.00
2:53 pm 14:53 Mostly Cloudy 55 12.8 47 8.3 74 74 WNW 9 15 30.06 1018 10 16 0.00 0.00
3:20 pm 15:20 Partly Cloudy 56 13.3 47 8.3 72 72 W 8 13 30.04 1017 10 16 0.00 0.00
3:53 pm 15:53 Sunny 55 12.8 46 7.8 72 72 WNW 5 7 30.05 1018 10 16 0.00 0.00
4:53 pm 16:53 Sunny 54 12.2 46 7.8 75 75 NW 6 9 30.06 1018 10 16 0.00 0.00
5:53 pm 17:53 Clear 49 9.4 45 7.2 86 86 Calm 30.07 1018 10 16 0.00 0.00
6:53 pm 18:53 Clear 46 7.8 45 7.2 96 96 Calm 30.08 1019 10 16 0.00 0.00
7:53 pm 19:53 Clear 45 7.2 44 6.7 97 97 ESE 3 6 30.09 1019 8 13 0.00 0.00
8:53 pm 20:53 Clear with Mist and Fog 43 6.1 43 6.1 100 100 Calm 30.11 1020 4 6 0.00 0.00
8:58 pm 20:58 Clear with Mist and Fog 43 6.1 43 6.1 100 100 Calm 30.09 1019 2 3 0.00 0.00
9:09 pm 21:09 Clear with Fog 43 6.1 43 6.1 100 100 Calm 30.09 1019 1 1 0.00 0.00
9:16 pm 21:16 Mostly Cloudy with Fog 43 6.1 43 6.1 100 100 Calm 30.09 1019 1 1 0.00 0.00
9:21 pm 21:21 Clear with Mist and Fog 43 6.1 43 6.1 100 100 Calm 30.09 1019 3 4 0.00 0.00
9:28 pm 21:28 Clear 43 6.1 43 6.1 100 100 Calm 30.09 1019 10 16 0.00 0.00
9:53 pm 21:53 Clear 42 5.6 42 5.6 100 100 Calm 30.11 1020 10 16 0.00 0.00
10:03 pm 22:03 Mostly Clear with Mist and Fog 42 5.6 42 5.6 100 100 Calm 30.10 1019 3 5 0.00 0.00
10:10 pm 22:10 Partly Cloudy with Mist and Fog 41 5 41 5 100 100 Calm 30.10 1019 2 2 0.00 0.00
10:14 pm 22:14 Mostly Cloudy with Mist and Fog 41 5 41 5 100 100 Calm 30.10 1019 1 1 0.00 0.00
10:28 pm 22:28 Mostly Cloudy with Fog 41 5 41 5 100 100 Calm 30.10 1019 0 0 0.00 0.00
10:53 pm 22:53 Mostly Cloudy with Fog 41 5 41 5 100 100 Calm 30.12 1020 1 1 0.00 0.00
11:14 pm 23:14 Partly Cloudy with Mist and Fog 41 5 41 5 100 100 Calm 30.10 1019 1 2 0.00 0.00
11:27 pm 23:27 Partly Cloudy with Mist and Fog 41 5 41 5 100 100 Calm 30.11 1020 4 6 0.00 0.00
11:53 pm 23:53 Mostly Cloudy with Mist and Fog 40 4.4 40 4.4 100 100 Calm 30.12 1020 4 6 0.00 0.00

Powered by AerisWeather